• In Belarus
  • List of Countries
  • For 7 days
  • Water Temperature
  • Satellite Maps
  • Weather Map
  • Weather Widgets
  • user-avatar
    Login

    Hourly Weather Shumen

    Today, 19 January, Friday

    Time Temperature Precipitation Wind Pressure Humidity
    00:00 -5°C° 0 mm 5 mps 726 mmHg 82%
    01:00 -5°C° 0 mm 4 mps 726 mmHg 84%
    02:00 -5°C° 0 mm 3 mps 725 mmHg 84%
    03:00 -5°C° 0 mm 3 mps 725 mmHg 82%
    04:00 -5°C° 0 mm 3 mps 725 mmHg 81%
    05:00 -4°C° 0 mm 2 mps 725 mmHg 79%
    06:00 -4°C° 0 mm 2 mps 725 mmHg 75%
    07:00 -3°C° 0 mm 2 mps 725 mmHg 71%
    08:00 -2°C° 0 mm 2 mps 725 mmHg 64%
    09:00 -1°C° 0 mm 2 mps 726 mmHg 61%
    10:00 +2°C° 0 mm 2 mps 726 mmHg 59%
    11:00 +4°C° 0 mm 2 mps 727 mmHg 57%
    12:00 +4°C° 0 mm 3 mps 727 mmHg 57%
    13:00 +5°C° 0 mm 3 mps 727 mmHg 56%
    14:00 +7°C° 0 mm 3 mps 727 mmHg 56%
    15:00 +5°C° 0 mm 3 mps 727 mmHg 58%
    16:00 +4°C° 0 mm 3 mps 727 mmHg 61%
    17:00 +4°C° 0 mm 2 mps 727 mmHg 64%
    18:00 +3°C° 0 mm 2 mps 727 mmHg 64%
    19:00 +3°C° 0 mm 2 mps 727 mmHg 64%
    20:00 +2°C° 0 mm 2 mps 727 mmHg 64%
    21:00 +2°C° 0 mm 2 mps 727 mmHg 65%
    22:00 +2°C° 0 mm 2 mps 727 mmHg 66%
    23:00 +2°C° 0 mm 2 mps 727 mmHg 66%

    Tomorrow, 20 January, Saturday

    Time Temperature Precipitation Wind Pressure Humidity
    00:00 +1°C° 0 mm 2 mps 727 mmHg 68%
    01:00 +1°C° 0 mm 2 mps 727 mmHg 70%
    02:00 +1°C° 0 mm 2 mps 727 mmHg 72%
    03:00 +1°C° 0 mm 2 mps 727 mmHg 73%
    04:00 +1°C° 0 mm 2 mps 726 mmHg 74%
    05:00 +1°C° 0 mm 2 mps 726 mmHg 75%
    06:00 +1°C° 0 mm 2 mps 726 mmHg 73%
    07:00 +2°C° 0 mm 1 mps 726 mmHg 72%
    08:00 +2°C° 0 mm 1 mps 726 mmHg 71%
    09:00 +3°C° 0 mm 1 mps 726 mmHg 69%
    10:00 +5°C° 0 mm 1 mps 726 mmHg 67%
    11:00 +6°C° 0 mm 1 mps 726 mmHg 65%
    12:00 +6°C° 0 mm 1 mps 726 mmHg 66%
    13:00 +7°C° 0 mm 1 mps 725 mmHg 68%
    14:00 +7°C° 0 mm 1 mps 725 mmHg 69%
    15:00 +7°C° 0 mm 1 mps 725 mmHg 73%
    16:00 +6°C° 0 mm 1 mps 724 mmHg 78%
    17:00 +5°C° 0 mm 1 mps 724 mmHg 82%
    18:00 +4°C° 0.1 mm 2 mps 724 mmHg 84%
    19:00 +3°C° 0.1 mm 2 mps 724 mmHg 85%
    20:00 +3°C° 0.1 mm 2 mps 724 mmHg 86%
    21:00 +2°C° 0.5 mm 2 mps 724 mmHg 87%
    22:00 +1°C° 0.5 mm 3 mps 725 mmHg 88%
    23:00 +1°C° 0.5 mm 3 mps 725 mmHg 88%

    Day after tomorrow, 21 January, Sunday

    Time Temperature Precipitation Wind Pressure Humidity
    00:00 +1°C° 0.2 mm 3 mps 725 mmHg 90%
    01:00 0°C° 0.2 mm 3 mps 725 mmHg 91%
    02:00 0°C° 0.2 mm 3 mps 726 mmHg 92%
    03:00 0°C° 0 mm 3 mps 726 mmHg 92%
    04:00 -1°C° 0 mm 2 mps 726 mmHg 92%
    05:00 -1°C° 0 mm 2 mps 726 mmHg 91%
    06:00 +1°C° 0 mm 1 mps 726 mmHg 90%
    07:00 +1°C° 0 mm 1 mps 727 mmHg 89%
    08:00 0°C° 0 mm 1 mps 727 mmHg 88%
    09:00 +1°C° 0 mm 1 mps 727 mmHg 86%
    10:00 +1°C° 0 mm 2 mps 727 mmHg 83%
    11:00 +3°C° 0 mm 2 mps 727 mmHg 81%
    12:00 +3°C° 0 mm 2 mps 727 mmHg 81%
    13:00 +2°C° 0 mm 3 mps 726 mmHg 81%
    14:00 +3°C° 0 mm 3 mps 726 mmHg 81%
    15:00 +2°C° 0.1 mm 3 mps 725 mmHg 84%
    16:00 +2°C° 0.1 mm 3 mps 725 mmHg 87%
    17:00 +2°C° 0.1 mm 3 mps 725 mmHg 90%
    18:00 +2°C° 0 mm 2 mps 724 mmHg 91%
    19:00 +2°C° 0 mm 2 mps 724 mmHg 93%
    20:00 +2°C° 0 mm 2 mps 724 mmHg 94%
    21:00 +3°C° 0 mm 1 mps 724 mmHg 94%
    22:00 +3°C° 0 mm 1 mps 724 mmHg 95%
    23:00 +2°C° 0 mm 1 mps 724 mmHg 95%

    22 January, Monday

    Time Temperature Precipitation Wind Pressure Humidity
    00:00 +1°C° 0.1 mm 2 mps 724 mmHg 95%
    01:00 +1°C° 0.1 mm 2 mps 724 mmHg 94%
    02:00 0°C° 0.1 mm 3 mps 723 mmHg 94%
    03:00 -1°C° 0.1 mm 4 mps 723 mmHg 93%
    04:00 -1°C° 0.1 mm 5 mps 723 mmHg 91%
    05:00 -2°C° 0.1 mm 6 mps 723 mmHg 89%
    06:00 -2°C° 0 mm 6 mps 723 mmHg 87%
    07:00 -3°C° 0 mm 7 mps 723 mmHg 85%
    08:00 -3°C° 0 mm 7 mps 724 mmHg 83%
    09:00 -3°C° 0.1 mm 7 mps 724 mmHg 82%
    10:00 -3°C° 0.1 mm 7 mps 724 mmHg 81%
    11:00 -2°C° 0.1 mm 8 mps 724 mmHg 80%
    12:00 -2°C° 0.5 mm 8 mps 725 mmHg 81%
    13:00 -2°C° 0.5 mm 8 mps 725 mmHg 82%
    14:00 -2°C° 0.5 mm 8 mps 725 mmHg 84%
    15:00 -3°C° 0.4 mm 7 mps 726 mmHg 85%
    16:00 -3°C° 0.4 mm 6 mps 727 mmHg 87%
    17:00 -4°C° 0.4 mm 6 mps 728 mmHg 89%
    18:00 -4°C° 0 mm 5 mps 729 mmHg 89%
    19:00 -5°C° 0 mm 5 mps 729 mmHg 89%
    20:00 -4°C° 0 mm 4 mps 730 mmHg 89%
    21:00 -5°C° 0 mm 4 mps 731 mmHg 89%
    22:00 -5°C° 0 mm 3 mps 731 mmHg 90%
    23:00 -6°C° 0 mm 3 mps 732 mmHg 90%

    23 January, Tuesday

    Time Temperature Precipitation Wind Pressure Humidity
    00:00 -5°C° 0 mm 2 mps 732 mmHg 90%
    01:00 -5°C° 0 mm 2 mps 733 mmHg 90%
    02:00 -5°C° 0 mm 2 mps 733 mmHg 90%
    03:00 -5°C° 0 mm 2 mps 733 mmHg 90%
    04:00 -5°C° 0 mm 2 mps 733 mmHg 90%
    05:00 -5°C° 0 mm 2 mps 734 mmHg 90%
    06:00 -6°C° 0 mm 2 mps 734 mmHg 89%
    07:00 -6°C° 0 mm 2 mps 734 mmHg 88%
    08:00 -6°C° 0 mm 2 mps 735 mmHg 88%
    09:00 -4°C° 0 mm 2 mps 735 mmHg 82%
    10:00 -3°C° 0 mm 2 mps 736 mmHg 77%
    11:00 -2°C° 0 mm 2 mps 736 mmHg 72%
    12:00 -2°C° 0 mm 2 mps 736 mmHg 71%
    13:00 -1°C° 0 mm 2 mps 736 mmHg 70%
    14:00 -1°C° 0 mm 2 mps 736 mmHg 68%
    15:00 -1°C° 0 mm 2 mps 736 mmHg 72%
    16:00 -2°C° 0 mm 2 mps 736 mmHg 76%
    17:00 -3°C° 0 mm 2 mps 737 mmHg 80%
    18:00 -3°C° 0 mm 2 mps 737 mmHg 81%
    19:00 -2°C° 0 mm 1 mps 738 mmHg 83%
    20:00 -2°C° 0 mm 1 mps 738 mmHg 84%
    21:00 -2°C° 0 mm 1 mps 739 mmHg 83%
    22:00 -3°C° 0 mm 1 mps 739 mmHg 83%
    23:00 -3°C° 0 mm 1 mps 739 mmHg 82%

    24 January, Wednesday

    Time Temperature Precipitation Wind Pressure Humidity
    00:00 -3°C° 0 mm 1 mps 740 mmHg 82%
    01:00 -3°C° 0 mm 1 mps 740 mmHg 81%
    02:00 -3°C° 0 mm 1 mps 740 mmHg 80%
    03:00 -3°C° 0 mm 1 mps 740 mmHg 80%
    04:00 -4°C° 0 mm 1 mps 740 mmHg 80%
    05:00 -4°C° 0 mm 1 mps 741 mmHg 80%
    06:00 -4°C° 0 mm 1 mps 741 mmHg 79%
    07:00 -4°C° 0 mm 1 mps 741 mmHg 78%
    08:00 -4°C° 0 mm 1 mps 741 mmHg 78%
    09:00 -3°C° 0 mm 1 mps 742 mmHg 73%
    10:00 -2°C° 0 mm 1 mps 742 mmHg 69%
    11:00 0°C° 0 mm 1 mps 743 mmHg 64%
    12:00 0°C° 0 mm 1 mps 742 mmHg 64%
    13:00 +1°C° 0 mm 1 mps 742 mmHg 65%
    14:00 +1°C° 0 mm 1 mps 742 mmHg 65%
    15:00 +1°C° 0 mm 1 mps 742 mmHg 70%
    16:00 0°C° 0 mm 1 mps 742 mmHg 74%
    17:00 -1°C° 0 mm 1 mps 742 mmHg 79%
    18:00 -1°C° 0 mm 1 mps 742 mmHg 81%
    19:00 -2°C° 0 mm 1 mps 742 mmHg 83%
    20:00 -2°C° 0 mm 1 mps 742 mmHg 85%
    21:00 -3°C° 0 mm 0 mps 742 mmHg 85%
    22:00 -3°C° 0 mm 0 mps 742 mmHg 85%
    23:00 -3°C° 0 mm 0 mps 742 mmHg 85%
    Show more